Location: Le Castellard
(44.1862°N, 6.1301°E)
Time: 00:02:25
(UTC+00:00)

CENTAUR R/B - Pass Details

Date: 18 January 2020
Orbit: 766 x 1422 km, 63.5° (Epoch: 19 February)

Event Time Altitude Azimuth Distance (km) Brightness Sun altitude
Exits shadow 06:03:32 - 323° (NW) 3,589 5.0 -11.2°
Reaches altitude 10° 06:04:35 10° 324° (NW) 3,244 4.7 -11.0°
Maximum altitude 06:12:39 79° 52° (NE) 1,392 3.4 -9.6°
Drops below altitude 10° 06:21:27 10° 139° (SE) 3,511 6.5 -8.1°
Sets 06:24:25 0° 141° (SE) 4,487 7.1 -7.6°
